| time (UTC) | temp C | wind direction | speed KPH | gust KPH | rain 1hr cm | rain 24hr cm | rain mn cm | humidity % | barometer mb |
| 20260508125910 | 28 | 225 | 0.0 | 0.0 | 0.00 | 0.00 | 0.00 | 76 | 1013.1 |
| 20260508123940 | 29 | 90 | 0.0 | 0.0 | 0.00 | 0.00 | 0.00 | 74 | 1013.1 |
| 20260508122939 | 28 | 0 | 0.0 | 0.0 | 0.00 | 0.00 | 0.00 | 77 | 1013.1 |
| 20260508121939 | 28 | 90 | 0.0 | 0.0 | 0.00 | 0.00 | 0.00 | 77 | 1013.2 |
| 20260508120940 | 29 | 0 | 0.0 | 0.0 | 0.00 | 0.00 | 0.00 | 75 | 1013.1 |
| 20260508115939 | 28 | 0 | 0.0 | 0.0 | 0.00 | 0.00 | 0.00 | 77 | 1013.2 |
| 20260508114445 | 29 | 0 | 0.0 | 0.0 | 0.00 | 0.00 | 0.00 | 73 | 1013.2 |
| 20260508113445 | 30 | 0 | 0.0 | 0.0 | 0.00 | 0.00 | 0.00 | 74 | 1013.1 |
| 20260508112445 | 30 | 0 | 0.0 | 0.0 | 0.00 | 0.00 | 0.00 | 74 | 1013.2 |
| 20260508110529 | 30 | 270 | 0.0 | 0.0 | 0.00 | 0.00 | 0.00 | 74 | 1013.2 |
| 20260508105529 | 30 | 0 | 0.0 | 0.0 | 0.00 | 0.00 | 0.00 | 74 | 1013.1 |
| 20260508104530 | 30 | 0 | 0.0 | 0.0 | 0.00 | 0.00 | 0.00 | 73 | 1013.1 |
| 20260508102636 | 30 | 0 | 0.0 | 0.0 | 0.00 | 0.00 | 0.00 | 75 | 1013.1 |
| 20260508101636 | 30 | 0 | 0.0 | 0.0 | 0.00 | 0.00 | 0.00 | 73 | 1013.1 |
| 20260508100636 | 30 | 22 | 0.0 | 0.0 | 0.00 | 0.00 | 0.00 | 72 | 1013.1 |
| 20260508095635 | 30 | 0 | 0.0 | 0.0 | 0.00 | 0.00 | 0.00 | 71 | 1013.1 |
| 20260508094635 | 30 | 0 | 0.0 | 0.0 | 0.00 | 0.00 | 0.00 | 70 | 1013.2 |
| 20260508093635 | 30 | 90 | 0.0 | 0.0 | 0.00 | 0.00 | 0.00 | 69 | 1013.1 |
| 20260508092635 | 30 | 0 | 0.0 | 0.0 | 0.00 | 0.00 | 0.00 | 69 | 1013.2 |
| 20260508091632 | 30 | 202 | 0.0 | 0.0 | 0.00 | 0.00 | 0.00 | 68 | 1013.2 |
| 20260508090632 | 30 | 0 | 0.0 | 0.0 | 0.00 | 0.00 | 0.00 | 67 | 1013.1 |
| 20260508085631 | 30 | 202 | 0.0 | 0.0 | 0.00 | 0.00 | 0.00 | 67 | 1013.1 |
| 20260508084631 | 30 | 0 | 0.0 | 0.0 | 0.00 | 0.00 | 0.00 | 66 | 1013.1 |
| 20260508083631 | 30 | 90 | 0.0 | 0.0 | 0.00 | 0.00 | 0.00 | 67 | 1013.2 |
| 20260508082630 | 29 | 90 | 1.6 | 3.2 | 0.00 | 0.00 | 0.00 | 70 | 1013.1 |
| 20260508081631 | 28 | 270 | 3.2 | 8.0 | 0.00 | 0.00 | 0.00 | 70 | 1013.1 |
| 20260508080630 | 28 | 0 | 22.5 | 53.1 | 0.00 | 0.00 | 0.00 | 68 | 1013.1 |
| 20260508075631 | 29 | 0 | 12.9 | 29.0 | 0.00 | 0.00 | 0.00 | 67 | 1013.1 |
| 20260508074631 | 30 | 0 | 61.2 | 136.8 | 0.00 | 0.00 | 0.00 | 66 | 1013.2 |
| 20260508073631 | 31 | 0 | 24.1 | 56.3 | 0.00 | 0.00 | 0.00 | 66 | 1013.1 |
| 20260508072627 | 32 | 0 | 48.3 | 109.4 | 0.00 | 0.00 | 0.00 | 75 | 1013.1 |
| 20260508071102 | 33 | 225 | 0.0 | 0.0 | 0.00 | 0.00 | 0.00 | 75 | 1013.1 |
| 20260508065416 | 33 | 112 | 0.0 | 0.0 | 0.00 | 0.00 | 0.00 | 76 | 1013.1 |
| 20260508064417 | 33 | 112 | 0.0 | 0.0 | 0.00 | 0.00 | 0.00 | 75 | 1013.1 |
| 20260508063416 | 33 | 225 | 0.0 | 0.0 | 0.00 | 0.00 | 0.00 | 75 | 1013.1 |
| 20260508062415 | 33 | 112 | 0.0 | 0.0 | 0.00 | 0.00 | 0.00 | 77 | 1013.2 |
| 20260508061416 | 33 | 202 | 0.0 | 0.0 | 0.00 | 0.00 | 0.00 | 77 | 1013.1 |
| 20260508060416 | 33 | 0 | 0.0 | 0.0 | 0.00 | 0.00 | 0.00 | 79 | 1013.1 |
| 20260508055415 | 33 | 112 | 0.0 | 0.0 | 0.00 | 0.00 | 0.00 | 75 | 1013.1 |
| 20260508054415 | 33 | 112 | 3.2 | 8.0 | 0.00 | 0.00 | 0.00 | 76 | 1013.1 |
| 20260508053415 | 33 | 315 | 0.0 | 0.0 | 0.00 | 0.00 | 0.00 | 76 | 1013.1 |
| 20260508052415 | 33 | 112 | 0.0 | 0.0 | 0.00 | 0.00 | 0.00 | 76 | 1013.1 |
| 20260508051412 | 33 | 90 | 0.0 | 0.0 | 0.00 | 0.00 | 0.00 | 74 | 1013.1 |
| 20260508050412 | 33 | 67 | 0.0 | 0.0 | 0.00 | 0.00 | 0.00 | 75 | 1013.1 |
| 20260508044449 | 32 | 112 | 0.0 | 0.0 | 0.00 | 0.00 | 0.00 | 78 | 1013.2 |
| 20260508043449 | 32 | 112 | 0.0 | 0.0 | 0.00 | 0.00 | 0.00 | 80 | 1013.1 |
| 20260508042449 | 32 | 315 | 0.0 | 0.0 | 0.00 | 0.00 | 0.00 | 78 | 1013.1 |
| 20260508041448 | 32 | 67 | 0.0 | 0.0 | 0.00 | 0.00 | 0.00 | 77 | 1013.2 |
| 20260508040448 | 32 | 67 | 0.0 | 0.0 | 0.00 | 0.00 | 0.00 | 78 | 1013.1 |
| 20260508035447 | 32 | 67 | 0.0 | 0.0 | 0.00 | 0.00 | 0.00 | 78 | 1013.1 |
| 20260508034449 | 32 | 315 | 0.0 | 0.0 | 0.00 | 0.00 | 0.00 | 78 | 1013.2 |
| 20260508033447 | 32 | 315 | 0.0 | 0.0 | 0.00 | 0.00 | 0.00 | 80 | 1013.1 |
| 20260508031605 | 32 | 67 | 0.0 | 0.0 | 0.00 | 0.00 | 0.00 | 79 | 1013.1 |
| 20260508030605 | 32 | 67 | 0.0 | 0.0 | 0.00 | 0.00 | 0.00 | 78 | 1013.1 |
| 20260508025534 | 32 | 67 | 0.0 | 0.0 | 0.00 | 0.00 | 0.00 | 80 | 1013.2 |
| 20260508024534 | 32 | 315 | 0.0 | 0.0 | 0.00 | 0.00 | 0.00 | 78 | 1013.1 |
| 20260508023534 | 31 | 67 | 0.0 | 0.0 | 0.00 | 0.00 | 0.00 | 79 | 1013.2 |
| 20260508022533 | 31 | 0 | 0.0 | 0.0 | 0.00 | 0.00 | 0.00 | 82 | 1013.2 |
| 20260508021534 | 31 | 22 | 0.0 | 0.0 | 0.00 | 0.00 | 0.00 | 83 | 1013.1 |
| 20260508015140 | 31 | 90 | 0.0 | 0.0 | 0.00 | 0.00 | 0.00 | 85 | 1013.2 |
| 20260508014141 | 30 | 0 | 0.0 | 0.0 | 0.00 | 0.00 | 0.00 | 86 | 1013.2 |
| 20260508013141 | 31 | 90 | 0.0 | 0.0 | 0.00 | 0.00 | 0.00 | 85 | 1013.1 |
| 20260508012140 | 31 | 0 | 0.0 | 0.0 | 0.00 | 0.00 | 0.00 | 84 | 1013.1 |
| 20260508011140 | 30 | 270 | 0.0 | 0.0 | 0.00 | 0.00 | 0.00 | 86 | 1013.2 |
| 20260508010140 | 30 | 225 | 0.0 | 0.0 | 0.00 | 0.00 | 0.00 | 86 | 1013.1 |
| 20260508005139 | 30 | 0 | 0.0 | 0.0 | 0.00 | 0.00 | 0.00 | 86 | 1013.1 |
| 20260508004134 | 30 | 0 | 0.0 | 0.0 | 0.00 | 0.00 | 0.00 | 87 | 1013.1 |
| 20260508003135 | 30 | 225 | 0.0 | 0.0 | 0.00 | 0.00 | 0.00 | 85 | 1013.2 |
| 20260508002133 | 30 | 225 | 0.0 | 0.0 | 0.00 | 0.00 | 0.00 | 85 | 1013.1 |
| 20260508001132 | 30 | 225 | 0.0 | 0.0 | 0.00 | 0.00 | 0.00 | 86 | 1013.1 |
| 20260508000038 | 30 | 0 | 0.0 | 0.0 | 0.00 | 0.00 | 0.00 | 85 | 1013.1 |
| 20260507234115 | 30 | 0 | 0.0 | 0.0 | 0.00 | 0.00 | 0.00 | 83 | 1013.1 |
| 20260507233115 | 30 | 0 | 0.0 | 0.0 | 0.00 | 0.00 | 0.00 | 85 | 1013.1 |
| 20260507232114 | 30 | 0 | 0.0 | 0.0 | 0.00 | 0.00 | 0.00 | 84 | 1013.1 |
| 20260507231114 | 29 | 225 | 0.0 | 0.0 | 0.00 | 0.00 | 0.00 | 86 | 1013.1 |
| 20260507230114 | 30 | 270 | 0.0 | 0.0 | 0.00 | 0.00 | 0.00 | 84 | 1013.2 |
| 20260507225109 | 30 | 225 | 0.0 | 0.0 | 0.00 | 0.00 | 0.00 | 82 | 1013.2 |
| 20260507222756 | 30 | 225 | 0.0 | 0.0 | 0.00 | 0.00 | 0.00 | 82 | 1013.2 |
| 20260507221757 | 30 | 112 | 0.0 | 0.0 | 0.00 | 0.00 | 0.00 | 83 | 1013.1 |
| 20260507215830 | 30 | 0 | 0.0 | 0.0 | 0.00 | 0.00 | 0.00 | 82 | 1013.2 |
| 20260507214830 | 30 | 0 | 0.0 | 0.0 | 0.00 | 0.00 | 0.00 | 81 | 1013.1 |
| 20260507213829 | 30 | 270 | 0.0 | 0.0 | 0.00 | 0.00 | 0.00 | 81 | 1013.2 |
| 20260507212829 | 30 | 270 | 0.0 | 0.0 | 0.00 | 0.00 | 0.00 | 82 | 1013.2 |
| 20260507211826 | 30 | 112 | 0.0 | 0.0 | 0.00 | 0.00 | 0.00 | 81 | 1013.2 |
| 20260507210826 | 30 | 0 | 0.0 | 0.0 | 0.00 | 0.00 | 0.00 | 81 | 1013.1 |
| 20260507205827 | 30 | 0 | 0.0 | 0.0 | 0.00 | 0.00 | 0.00 | 81 | 1013.2 |
| 20260507204825 | 30 | 0 | 0.0 | 0.0 | 0.00 | 0.00 | 0.00 | 80 | 1013.1 |
| 20260507202947 | 30 | 0 | 0.0 | 0.0 | 0.00 | 0.00 | 0.00 | 80 | 1013.2 |
| 20260507201947 | 30 | 0 | 0.0 | 0.0 | 0.00 | 0.00 | 0.00 | 82 | 1013.2 |
| 20260507200947 | 30 | 0 | 0.0 | 0.0 | 0.00 | 0.00 | 0.00 | 81 | 1013.2 |
| 20260507195947 | 31 | 90 | 0.0 | 0.0 | 0.00 | 0.00 | 0.00 | 79 | 1013.1 |
| 20260507194947 | 31 | 90 | 0.0 | 0.0 | 0.00 | 0.00 | 0.00 | 79 | 1013.1 |
| 20260507193946 | 31 | 90 | 0.0 | 0.0 | 0.00 | 0.00 | 0.00 | 79 | 1013.2 |
| 20260507192946 | 31 | 22 | 0.0 | 0.0 | 0.00 | 0.00 | 0.00 | 79 | 1013.1 |
| 20260507191947 | 30 | 0 | 0.0 | 0.0 | 0.00 | 0.00 | 0.00 | 79 | 1013.1 |
| 20260507190946 | 31 | 270 | 0.0 | 0.0 | 0.00 | 0.00 | 0.00 | 79 | 1013.2 |
| 20260507185946 | 31 | 0 | 0.0 | 0.0 | 0.00 | 0.00 | 0.00 | 79 | 1013.1 |
| 20260507183813 | 31 | 67 | 0.0 | 0.0 | 0.00 | 0.00 | 0.00 | 80 | 1013.1 |
| 20260507181631 | 30 | 225 | 0.0 | 0.0 | 0.00 | 0.00 | 0.00 | 86 | 1013.2 |
| 20260507180632 | 30 | 225 | 0.0 | 0.0 | 0.00 | 0.00 | 0.00 | 86 | 1013.2 |
| 20260507175631 | 30 | 225 | 0.0 | 0.0 | 0.00 | 0.00 | 0.00 | 88 | 1013.1 |
| 20260507174630 | 30 | 225 | 0.0 | 0.0 | 0.00 | 0.00 | 0.00 | 86 | 1013.1 |
| 20260507173151 | 30 | 225 | 0.0 | 0.0 | 0.00 | 0.00 | 0.00 | 86 | 1013.1 |
| 20260507172151 | 30 | 225 | 0.0 | 0.0 | 0.00 | 0.00 | 0.00 | 88 | 1013.1 |
| 20260507171150 | 29 | 225 | 0.0 | 0.0 | 0.00 | 0.00 | 0.00 | 90 | 1013.2 |
| 20260507170151 | 30 | 0 | 0.0 | 0.0 | 0.00 | 0.00 | 0.00 | 87 | 1013.1 |
| 20260507164946 | 30 | 270 | 0.0 | 0.0 | 0.00 | 0.00 | 0.79 | 85 | 1013.1 |
| 20260507163946 | 30 | 202 | 0.0 | 0.0 | 0.00 | 0.00 | 0.79 | 85 | 1013.1 |
| 20260507162944 | 30 | 202 | 0.0 | 0.0 | 0.00 | 0.00 | 0.79 | 84 | 1013.2 |
| 20260507161943 | 30 | 67 | 0.0 | 0.0 | 0.00 | 0.00 | 0.79 | 84 | 1013.1 |
| 20260507160858 | 30 | 67 | 0.0 | 0.0 | 0.00 | 0.00 | 0.79 | 84 | 1013.2 |
| 20260507151110 | 30 | 0 | 0.0 | 0.0 | 0.00 | 0.00 | 0.79 | 83 | 1013.1 |
| 20260507150109 | 30 | 0 | 0.0 | 0.0 | 0.00 | 0.00 | 0.79 | 85 | 1013.1 |
| 20260507144355 | 30 | 67 | 0.0 | 0.0 | 0.00 | 0.00 | 0.79 | 80 | 1013.1 |
| 20260507143350 | 30 | 67 | 0.0 | 0.0 | 0.00 | 0.00 | 0.79 | 78 | 1013.1 |
| 20260507142350 | 30 | 202 | 0.0 | 0.0 | 0.00 | 0.00 | 0.79 | 82 | 1013.2 |
| 20260507141031 | 30 | 112 | 0.0 | 0.0 | 0.00 | 0.00 | 0.79 | 82 | 1013.2 |
| 20260507140033 | 30 | 0 | 0.0 | 0.0 | 0.00 | 0.00 | 0.79 | 80 | 1013.1 |
| 20260507134223 | 30 | 315 | 0.0 | 0.0 | 0.00 | 0.00 | 0.79 | 80 | 1013.1 |
| 20260507133222 | 30 | 112 | 0.0 | 0.0 | 0.00 | 0.00 | 0.79 | 81 | 1013.2 |
| 20260507132221 | 30 | 0 | 0.0 | 0.0 | 0.00 | 0.00 | 0.79 | 79 | 1013.2 |
| 20260507131221 | 30 | 67 | 0.0 | 0.0 | 0.00 | 0.00 | 0.79 | 79 | 1013.2 |
| 20260507125952 | 31 | 67 | 0.0 | 0.0 | 0.00 | 0.00 | 0.79 | 79 | 1013.1 |